Showing default

REFLECTOR, 27005

Orbit data source: Space-Track

REFLECTOR, 27005 is a Commonwealth of Independent States-origin payload satellite in SSO that was launched on Mon, 10 Dec 2001 UTC via a ZENIT-2 launch vehicle from the Tyuratam Missile And Space Complex (TTMTR). Payload-class satellites include a variety of spacecraft equipped with specific instruments for various scientific and technological missions. These include communications satellites like Starlink; space stations such as the ISS; scientific satellites like the Hubble; Earth observation satellites from companies like Planet Labs, Umbra, and HawkEye 360; GPS; miniature CubeSats for education and research; and military/defense satellites.

Loading next visibility...
Identifier
27005, 2001-056E
Orbit
SSO
Country
Flag of CISCIS
Related business
Manufacturer
NIIPP
Mission
Defense Calibration
Bus & Motor
REFLEKTOR, Unknown motor
Mass
8 kg wet, 8 kg dry
Launch date (UTC)
2001-12-10 (24 years ago)
Launch vehicle
ZENIT-2
Launch site
Tyuratam Missile And Space Complex (TTMTR)
Object type
Payload
Rocket body
Debris
Shape & HBR
Box + 4 Fin, 0.7 m
Radar Cross Section
1.680 m², Medium (>0.1 m² and < 1m²)

Expand to show TLE details & history
Last TLE update: 7 hours ago

TLE from 7 hours ago
0 REFLECTOR
1 27005U 01056E   26150.51824100  .00000049  00000-0  10554-3 0  9992
2 27005  99.7637 320.5909 0018768 157.1785 203.0199 13.71444440224115
Epoch: 2026-05-30T12:26Z
TLE epoch observation values (Epoch: 2026-05-30T12:26:16.022Z)
Latitude
-0.00002°
Longitude
-114.00897°
Altitude
1,009.944 km
Speed
7.34 km/s
True Right ascension
21h 22m 21s
True Declination
0° 00' 00"
Sunlit
Object was in daylight at epoch
Visualization orbit readout
Latitude
Unknown
Longitude
Unknown
Altitude
Unknown
Speed
Unknown
Apparent Right ascension
Unknown
Apparent Declination
Unknown
Sunlit
N/A
Visualization observer readout
Local Sidereal Time
05:26:51
Azimuth
Unknown
Elevation
Unknown
Doppler factor
Unknown
Orbital elements
Apogee altitude
1,005.498 km
Perigee altitude
977.834 km
Semi-major axis
7,369.803 km
Eccentricity
0.00188
Inclination
99.7637°
RAAN
320.5909°
Arg. of periapsis
157.1785°
True anomaly
202.93598°
Mean anomaly
203.0199°
Eccentric anomaly
202.97792°
Mean motion
3.43052 °/min
Orbital period
104.94 mins
BSTAR
0.00010554
Loading maneuver chart data...
Computing Atmospheric mass density...
Loading historical data...
Loading historical data...
Loading historical data...
Loading historical data...
Loading historical data...
Loading historical data...
Loading historical data...

Documentation

Showing up to 5 results
|